Theta_e
344 344 345 346 348 346 344 344 345 345 346 346 347 348 349 349 349 350 349 347 345 344 341 340 341 341 342 344 344 344 346 347 348 348 348 349 351 351 351 351 348 347
345 344 344 345 346 346 346 346 346 345 345 347 347 346 346 347 347 349 349 349 349 346 343 341 342 343 343 344 343 343 345 345 344 346 347 348 349 351 352 351 348 347
345 345 344 343 343 344 346 346 346 345 344 344 344 344 345 345 345 346 347 347 348 346 342 341 342 344 344 343 344 346 348 346 342 342 345 346 347 348 350 349 348 346
347 347 346 345 344 344 346 347 346 345 344 342 342 342 344 344 343 345 346 346 347 346 344 343 344 346 345 342 343 346 348 348 345 343 344 344 346 347 348 349 348 346
349 347 348 347 346 345 346 347 347 346 345 343 342 342 342 344 344 345 346 347 347 347 346 346 346 347 347 344 343 344 345 346 346 346 345 343 344 346 349 348 347 347
348 347 347 348 348 347 347 347 348 347 346 344 343 343 342 343 344 345 346 347 348 349 347 347 347 348 348 347 346 346 347 346 347 347 346 343 343 346 349 349 348 348
350 349 349 349 350 350 350 349 348 347 346 345 344 343 342 342 343 345 346 347 348 348 348 346 347 347 347 348 348 348 348 348 348 346 346 345 345 346 349 348 348 350
351 352 351 351 351 352 351 349 348 347 347 346 345 343 344 344 343 344 345 346 347 346 347 346 345 346 346 346 347 347 347 348 347 347 347 347 348 348 349 348 349 352
352 352 352 351 351 351 351 349 348 347 345 345 344 344 345 346 345 344 344 345 345 345 346 346 345 345 345 345 346 346 347 347 347 347 347 348 348 348 347 348 348 349
351 351 352 352 351 350 351 350 348 348 346 346 346 345 346 345 344 345 345 345 344 344 345 346 346 346 345 345 346 345 346 346 346 347 348 349 350 349 350 349 347 344
351 350 350 351 351 350 350 350 349 348 348 348 347 346 346 346 345 345 345 346 345 345 345 345 346 347 346 345 345 346 346 346 346 347 349 349 350 352 353 352 349 347
351 350 350 350 351 350 350 350 348 347 348 348 348 347 347 346 346 345 345 346 346 346 345 345 346 346 346 346 346 346 347 346 347 347 349 349 349 351 353 354 352 349
353 351 351 351 351 350 350 349 349 348 347 347 347 348 348 346 346 345 345 345 346 346 345 345 346 346 346 346 347 347 347 347 348 348 349 349 349 351 353 353 351 349
351 351 352 353 352 351 350 350 349 349 348 348 347 348 347 347 347 346 346 345 346 346 345 345 346 346 346 348 347 347 347 347 348 348 349 350 349 351 352 351 350 350
346 347 350 352 352 351 349 349 349 349 349 349 348 347 347 348 348 346 346 346 346 345 345 345 346 345 347 348 348 347 347 348 349 348 349 349 349 350 351 350 351 350
344 344 345 348 348 348 346 346 346 348 348 349 350 349 348 348 348 347 346 346 345 345 346 346 346 346 347 347 348 348 348 349 350 350 349 349 349 349 349 349 350 350
344 344 344 345 345 344 345 344 344 345 346 347 348 349 349 348 348 348 347 347 347 346 346 346 346 346 347 347 348 348 349 350 351 351 350 350 349 349 349 348 348 349
348 348 348 348 347 346 345 346 347 348 348 347 347 348 348 349 349 349 349 348 348 348 347 346 346 346 347 347 348 348 349 349 349 350 350 351 350 350 349 348 347 348
352 352 352 352 351 350 348 349 350 351 352 350 348 347 346 346 348 349 350 350 348 349 349 348 346 346 347 347 347 348 349 349 349 349 348 349 349 349 349 349 348 349
353 354 354 354 354 354 352 351 351 351 351 349 349 348 347 345 344 344 346 348 349 350 352 351 350 348 348 347 347 347 347 349 349 348 349 348 349 348 348 348 347 347
352 351 352 352 352 353 352 352 352 352 350 350 350 350 349 348 346 344 343 344 346 348 348 348 348 349 349 348 348 348 348 348 348 348 349 349 349 349 348 347 346 344
350 350 350 350 350 351 351 350 350 350 349 350 350 350 349 349 349 348 346 344 345 346 345 345 344 346 346 347 348 348 348 348 348 348 349 349 349 349 349 348 346 344
351 350 349 349 348 348 348 346 347 349 349 350 350 349 350 350 350 350 348 347 346 346 346 346 344 345 346 346 346 347 347 348 348 348 348 349 349 348 349 349 347 345
352 351 350 349 348 347 347 345 347 349 350 350 349 349 350 350 349 349 349 348 348 347 347 347 346 346 347 347 348 347 347 347 348 348 347 347 347 347 348 348 348 347
351 351 351 351 350 350 349 348 348 349 350 349 348 349 350 349 349 348 348 349 349 349 350 349 349 349 348 349 350 348 347 346 346 347 347 347 347 347 347 348 348 348
348 348 347 347 349 350 350 350 350 350 350 350 349 349 349 349 348 348 348 348 348 349 350 349 350 349 348 349 350 350 349 348 347 347 348 348 348 348 347 348 348 348
Wind_Speed
17 23 27 27 26 25 26 23 21 22 22 21 23 24 23 21 18 16 16 17 16 15 14 14 15 15 15 17 16 14 14 13 12 11 10 10 11 11 11 11 10 11
16 21 26 28 28 26 25 24 21 21 23 23 21 22 23 20 17 17 19 19 18 18 15 14 16 16 15 17 17 15 15 17 16 13 11 12 12 12 12 11 11 11
17 19 22 26 28 27 25 24 22 20 21 23 22 21 21 21 19 20 21 20 20 19 16 15 16 16 16 16 17 16 15 16 15 14 13 13 13 14 13 12 12 11
20 21 22 24 27 28 26 23 22 21 20 22 23 23 21 21 21 21 21 20 19 17 16 17 17 16 16 16 17 19 18 17 16 14 14 15 16 15 14 14 13 12
18 19 20 21 23 25 25 23 22 23 22 22 23 24 23 22 21 21 22 21 19 16 17 19 18 17 17 17 18 19 19 19 17 16 16 16 17 16 15 15 15 15
15 16 17 18 19 22 24 24 24 24 24 23 23 23 24 24 22 21 21 22 22 21 20 20 19 19 19 19 19 18 18 18 16 16 18 18 18 17 15 15 16 16
15 16 17 18 20 22 24 25 25 26 26 24 23 23 23 24 24 22 21 21 23 23 22 21 21 21 20 19 19 19 19 19 17 16 17 18 19 18 17 16 16 15
17 18 19 20 22 25 25 25 25 25 25 24 23 23 22 23 24 24 23 22 22 22 23 22 22 23 22 21 20 21 21 20 19 18 19 20 21 19 17 17 17 16
16 19 20 21 22 24 24 24 24 24 25 24 23 24 23 23 23 23 24 24 23 22 22 22 22 23 23 22 21 21 21 21 20 19 20 21 22 20 18 17 17 17
15 15 17 19 21 22 21 22 23 23 24 24 25 25 24 23 23 23 24 25 24 24 23 22 22 22 23 23 22 21 21 21 19 18 19 19 20 20 18 18 18 18
15 14 14 16 18 20 21 21 22 21 22 24 26 25 24 23 24 24 24 25 25 25 24 23 23 22 22 22 22 22 22 21 19 18 19 20 19 19 19 19 19 18
17 17 16 14 15 17 18 18 20 20 21 22 22 22 23 24 24 24 25 25 25 25 24 24 24 23 23 22 21 21 21 20 20 20 20 20 20 20 21 20 20 19
19 19 19 16 15 15 15 15 16 17 19 20 19 20 22 22 22 23 25 25 24 24 24 24 24 24 24 24 24 22 20 20 20 20 21 20 20 21 22 21 21 21
21 20 20 19 18 18 17 16 15 15 16 17 18 20 20 19 21 22 22 23 24 24 24 24 24 24 24 24 25 24 23 22 20 20 21 20 20 22 23 22 21 21
20 21 22 22 20 20 19 19 17 16 16 14 14 18 18 18 21 21 20 22 22 22 23 23 23 24 24 24 24 24 24 23 22 22 21 21 22 24 23 22 22 22
15 17 19 21 22 21 20 20 19 19 19 16 13 15 17 19 20 20 20 21 22 22 23 24 24 25 24 25 25 24 24 23 23 24 23 23 24 25 24 24 24 24
16 16 17 18 19 19 19 19 19 20 21 21 19 17 18 19 20 21 21 21 20 21 22 23 24 25 25 26 26 26 26 25 24 23 23 25 27 27 26 26 26 25
18 18 18 18 19 19 18 16 16 16 17 20 21 21 21 21 22 23 23 23 22 21 21 22 23 24 24 26 26 26 27 27 27 26 26 26 27 28 27 27 26 26
16 16 16 16 17 18 18 17 16 15 15 16 20 23 24 25 25 25 25 26 25 23 21 21 23 23 23 24 25 26 27 28 29 29 28 26 26 27 27 26 25 26
14 15 14 14 14 14 16 17 17 18 18 19 21 23 24 25 27 27 27 28 27 26 24 23 24 23 22 22 23 24 26 28 29 29 29 29 29 30 29 28 27 27
13 13 13 12 13 14 15 16 16 18 20 21 22 23 23 24 26 27 28 28 28 28 28 28 28 27 26 25 24 22 23 25 27 28 29 31 32 32 33 32 31 31
12 12 11 10 10 12 14 15 16 19 21 21 23 24 24 23 24 26 27 28 27 28 29 29 29 29 29 29 28 27 26 26 26 27 29 30 31 33 34 33 32 33
10 11 12 11 10 11 12 14 15 17 19 20 21 23 24 24 24 25 27 28 29 30 31 32 31 29 28 28 29 31 31 31 30 29 30 31 32 33 33 33 33 33
8 8 9 9 8 9 11 13 15 16 18 19 20 21 22 23 24 25 27 28 30 32 32 33 33 32 31 30 30 31 32 32 32 31 31 33 34 34 34 34 34 33
6 6 7 6 5 6 7 10 13 15 16 17 18 19 20 21 22 24 26 27 29 30 31 32 33 33 33 33 34 33 33 33 33 33 32 33 35 36 36 36 36 36
7 8 10 10 9 9 9 11 13 14 14 15 16 16 17 18 19 21 23 24 26 28 30 32 33 34 33 33 34 34 33 34 35 35 34 33 33 35 35 35 35 35
Wind_Direction
209 206 205 200 198 195 191 197 203 197 196 202 205 208 209 211 217 216 215 226 235 231 222 218 216 215 209 206 210 215 215 215 225 240 248 247 244 246 249 248 253 261
209 206 207 205 203 201 197 197 202 204 205 205 207 214 216 214 214 213 211 216 228 232 226 217 218 220 215 212 219 226 225 223 222 225 237 248 250 250 251 252 257 260
205 203 205 207 207 207 204 200 199 205 212 211 210 216 220 219 216 220 224 222 225 231 227 221 222 223 220 219 223 228 233 238 239 233 230 235 245 254 255 255 258 261
202 201 201 202 207 208 208 205 199 202 212 214 213 214 216 219 217 221 232 234 231 227 223 230 236 230 225 227 227 227 228 236 246 247 238 234 235 241 250 255 256 258
206 204 201 200 204 206 208 207 200 202 212 216 216 214 214 216 217 219 227 232 230 223 220 229 238 234 231 235 236 236 234 234 241 246 247 245 239 236 243 251 252 250
212 209 206 205 205 205 207 209 206 207 211 213 215 216 214 216 217 216 220 223 221 219 218 222 228 229 229 234 239 241 239 236 235 241 251 255 252 245 240 246 254 252
215 211 208 207 206 207 209 209 209 210 211 212 214 216 217 218 219 218 217 218 219 219 219 220 223 225 225 228 234 238 239 237 233 235 245 254 256 253 242 238 247 253
210 207 207 209 208 208 207 206 209 212 211 211 214 216 217 218 220 221 220 219 222 223 222 222 224 228 229 228 230 236 238 237 232 229 233 241 246 250 246 238 237 243
211 207 204 205 209 211 208 206 209 211 210 212 216 217 219 220 221 222 223 223 225 226 226 226 226 229 231 230 230 234 238 238 235 231 233 239 243 246 248 244 239 239
212 214 209 208 209 211 211 209 211 211 210 213 216 215 217 222 223 222 224 225 223 223 226 227 227 227 230 231 230 230 234 241 243 237 233 238 245 248 249 247 247 247
208 214 216 218 215 211 211 213 215 215 215 220 221 216 216 222 222 221 224 226 224 223 225 226 225 225 228 230 229 228 230 236 242 242 237 236 240 243 243 247 253 257
206 208 210 217 224 221 216 217 219 218 221 228 229 221 220 223 222 221 224 227 227 225 226 228 228 225 226 229 229 231 234 235 236 239 241 242 242 243 244 247 253 258
209 210 209 208 215 219 219 221 224 224 224 226 228 225 223 225 224 224 225 226 228 228 227 229 231 229 229 230 230 231 234 238 238 239 241 242 241 243 246 250 254 257
221 218 215 210 207 209 213 215 219 225 226 225 229 229 228 228 226 227 229 228 229 231 231 231 233 233 232 232 233 232 231 234 237 239 241 242 241 241 242 245 250 253
228 226 225 223 221 221 223 221 218 219 221 224 230 231 232 234 231 230 234 234 232 232 233 233 233 235 235 234 235 236 235 235 235 237 239 240 244 247 245 246 249 250
231 230 229 230 233 235 237 237 234 229 225 225 229 231 232 235 233 231 234 238 238 236 235 235 234 234 236 237 237 238 238 237 237 238 239 239 243 248 249 250 254 255
239 240 240 241 242 241 241 242 241 238 234 232 233 236 235 234 232 233 235 237 239 240 238 236 236 236 238 239 240 240 239 238 237 238 239 240 242 246 249 252 255 257
241 244 246 248 249 247 246 248 248 247 244 240 239 239 236 235 233 232 234 235 236 238 239 239 238 239 241 242 242 241 240 239 239 242 244 243 243 246 250 252 254 257
236 240 243 247 248 248 248 249 251 252 251 250 247 241 237 236 236 235 235 236 236 236 239 242 241 241 243 245 245 245 243 242 243 246 246 246 247 250 253 253 254 256
236 236 238 241 244 247 248 248 248 250 252 253 252 249 244 241 241 241 240 239 239 239 240 241 241 241 243 246 247 248 248 248 247 247 246 247 250 253 253 254 254 254
242 240 240 244 248 251 252 252 253 256 256 255 255 255 253 249 245 244 243 242 242 243 244 243 242 242 242 242 242 244 249 251 251 249 247 248 251 252 252 253 253 253
240 241 242 246 250 254 256 256 256 258 258 257 256 256 256 254 249 247 246 244 243 245 247 247 245 243 243 244 243 243 245 248 251 252 249 247 250 252 254 254 254 255
247 249 249 249 251 255 263 265 262 260 260 262 262 261 259 257 254 252 250 249 247 248 250 251 250 248 246 245 243 243 244 244 246 250 251 249 250 252 254 255 255 255
250 252 257 261 257 249 254 262 264 261 260 263 265 263 259 257 256 255 253 251 249 250 252 255 256 255 251 247 244 244 245 244 244 247 250 252 252 252 251 253 254 254
238 236 237 242 244 238 237 247 256 259 259 262 265 265 263 261 260 258 257 256 254 253 254 255 257 257 254 252 250 249 248 247 246 245 247 249 251 251 251 251 253 254
219 219 218 214 211 218 223 229 242 251 257 262 265 268 269 267 265 264 263 262 262 259 257 257 258 258 257 255 254 253 252 250 247 244 244 245 248 250 250 250 251 253